Lima, OH

1:30 PM EDT on August 18, 2017 (GMT -0400)
Lima Allen County

Weather History for KAOH - March, 2013

Change the Weather History Date:

Friday, March 15, 2013

  Actual Average (KFDY) Record (KFDY)
Temperature  
Mean Temperature 38 °F -  
Max Temperature 46 °F 45 °F 77 °F (1990)
Min Temperature 30 °F 28 °F 7 °F (1993)
Degree Days  
Heating Degree Days 27    
Moisture  
Dew Point 32 °F    
Average Humidity 77    
Maximum Humidity 93    
Minimum Humidity 63    
Precipitation  
Precipitation 0.19 in - - ()
Sea Level Pressure  
Sea Level Pressure 29.95 in    
Wind  
Wind Speed 8 mph (SW)    
Max Wind Speed 13 mph    
Max Gust Speed -    
Visibility 7 miles    
Events Rain    
Averages and records for this station are not official NWS values.
T = Trace of Precipitation, MM = Missing Value Source: NWS Daily Summary

Daily Weather History Graph

Daily Weather History Graph

Search for Another Location

Airport or City:

Trip Planner

Search our weather history database for the weather conditions in past years. The results will help you decide how hot, cold, wet, or windy it might be!

Date:

Astronomy

Mar. 15, 2013 Rise Set
Actual Time 7:47 AM EDT 7:43 PM EDT
Civil Twilight 7:20 AM EDT 8:10 PM EDT
Nautical Twilight 6:48 AM EDT 8:42 PM EDT
Astronomical Twilight 6:16 AM EDT 9:14 PM EDT
Moon 9:35 AM EDT (3/15) 11:57 PM EDT (3/15)
Length of Visible Light 12h 50m
Length of Day
11h 55m
Waxing Crescent, 15% of the Moon is Illuminated
Mar 15
Waxing Crescent
Mar 19
First Quarter
Mar 27
Full
Apr 3
Last Quarter
Apr 10
New

Hourly Weather History & Observations

Time (EDT) Temp. Windchill Dew Point Humidity Pressure Visibility Wind Dir Wind Speed Gust Speed Precip Events Conditions
12:53 AM 32.0 °F 26.4 °F 21.9 °F 66% 30.14 in 10.0 mi SSW 5.8 mph - N/A   Scattered Clouds
1:53 AM 33.1 °F 26.9 °F 21.9 °F 64% 30.13 in 10.0 mi SW 6.9 mph - N/A   Mostly Cloudy
2:53 AM 33.1 °F 26.9 °F 23.0 °F 66% 30.10 in 10.0 mi SSW 6.9 mph - N/A   Overcast
3:53 AM 32.0 °F 23.6 °F 25.0 °F 75% 30.08 in 10.0 mi SW 10.4 mph - N/A   Clear
4:53 AM 32.0 °F 24.8 °F 25.0 °F 75% 30.06 in 10.0 mi SW 8.1 mph - N/A   Scattered Clouds
5:53 AM 30.9 °F 24.3 °F 26.1 °F 82% 30.04 in 8.0 mi SSW 6.9 mph - N/A   Clear
6:53 AM 30.9 °F 22.8 °F 27.0 °F 85% 30.02 in 6.0 mi SSW 9.2 mph - N/A   Clear
7:53 AM 30.0 °F 23.2 °F 27.0 °F 88% 30.00 in 5.0 mi SSW 6.9 mph - N/A   Clear
8:53 AM 32.0 °F 24.2 °F 28.0 °F 85% 30.00 in 4.0 mi SW 9.2 mph - N/A   Clear
9:53 AM 34.0 °F 25.5 °F 28.9 °F 82% 30.00 in 6.0 mi SW 11.5 mph - N/A   Haze
10:53 AM 37.0 °F 29.3 °F 30.0 °F 76% 29.97 in 8.0 mi SW 11.5 mph - N/A   Clear
11:53 AM 39.9 °F 33.4 °F 30.9 °F 70% 29.96 in 9.0 mi WSW 10.4 mph - N/A   Clear
12:53 PM 43.0 °F 36.8 °F 33.1 °F 68% 29.95 in 9.0 mi SW 11.5 mph - N/A   Clear
1:53 PM 44.1 °F 39.0 °F 33.1 °F 65% 29.92 in 9.0 mi WSW 9.2 mph - N/A   Clear
2:53 PM 45.0 °F 40.6 °F 34.0 °F 65% 29.91 in 9.0 mi WSW 8.1 mph - N/A   Mostly Cloudy
3:53 PM 46.0 °F 40.2 °F 34.0 °F 63% 29.88 in 9.0 mi WSW 12.7 mph - N/A   Overcast
4:53 PM 46.0 °F 41.0 °F 35.1 °F 66% 29.88 in 9.0 mi WSW 10.4 mph - N/A   Mostly Cloudy
5:53 PM 46.0 °F 41.9 °F 35.1 °F 66% 29.87 in 8.0 mi SW 8.1 mph - N/A   Overcast
6:53 PM 46.0 °F 42.5 °F 36.0 °F 68% 29.88 in 9.0 mi WSW 6.9 mph - N/A   Overcast
7:53 PM 45.0 °F 41.2 °F 37.0 °F 74% 29.88 in 8.0 mi WSW 6.9 mph - 0.00 in Rain Light Rain
8:53 PM 43.0 °F 41.3 °F 37.9 °F 82% 29.87 in 5.0 mi SW 3.5 mph - 0.03 in Rain Light Rain
9:39 PM 42.8 °F 38.0 °F 39.2 °F 87% 29.85 in 3.0 mi SW 8.1 mph - 0.04 in Rain Light Rain
9:53 PM 42.1 °F 38.4 °F 39.0 °F 89% 29.86 in 3.0 mi SW 5.8 mph - 0.04 in Rain Light Rain
10:08 PM 42.8 °F 41.1 °F 39.2 °F 87% 29.84 in 2.5 mi SW 3.5 mph - 0.02 in Rain Light Rain
10:25 PM 42.8 °F 41.1 °F 39.2 °F 87% 29.83 in 1.5 mi SSW 3.5 mph - 0.06 in Rain Rain
10:53 PM 42.1 °F - 39.9 °F 92% 29.85 in 1.8 mi Calm Calm - 0.09 in Rain Light Rain
11:53 PM 41.0 °F 35.2 °F 39.0 °F 93% 29.81 in 1.2 mi SSE 9.2 mph - 0.03 in Rain Light Rain